Location: Franzen
(48.6167°N, 15.3833°E)
Time: 20:23:52
(UTC+00:00)

Cosmos 1709 Rocket - Pass Details

Date: 02 August 2021
Orbit: 947 x 1002 km, 82.9° (Epoch: 22 September)

Event Time Altitude Azimuth Distance (km) Brightness Sun altitude
Exits shadow 23:55:52 32° 241° (WSW) 1,634 4.8 -22.9°
Maximum altitude 23:58:10 44° 287° (WNW) 1,354 4.7 -22.8°
Drops below altitude 10° 00:04:16 10° 359° (N) 2,787 7.4 -22.6°
Sets 00:06:58 0° 6° (N) 3,741 8.5 -22.4°
